This is the latest recevied weather packets stored in our database for station/object TA2LKM-11. If no packets are shown the sender has not sent any weather packets the latest 10 day(s).
| Time | Temp. | Humidity | Pressure | Rain* | Wind** | Luminosity | Snow |
|---|---|---|---|---|---|---|---|
| 1788263673 | 33.33° C | 49% | 1013.7 hPa | - | - | - | - |
| 1788262772 | 33.33° C | 49% | 1013.8 hPa | - | - | - | - |
| 1788261780 | 34.44° C | 47% | 1013.9 hPa | - | - | - | - |
| 1788260879 | 35° C | 42% | 1013.8 hPa | - | - | - | - |
| 1788259978 | 35° C | 42% | 1013.9 hPa | - | - | - | - |
| 1788259078 | 35.56° C | 42% | 1014.1 hPa | - | - | - | - |
| 1788258177 | 35° C | 37% | 1014.2 hPa | - | - | - | - |
| 1788257276 | 35° C | 40% | 1014.4 hPa | - | - | - | - |
| 1788257238 | 35° C | 40% | 1014.4 hPa | - | - | - | - |
| 1788256338 | 34.44° C | 41% | 1014.6 hPa | - | - | - | - |
| 1788255437 | 34.44° C | 43% | 1014.8 hPa | - | - | - | - |
| 1788254535 | 32.78° C | 46% | 1015.1 hPa | - | - | - | - |
| 1788254447 | 33.89° C | 43% | 1015.1 hPa | - | - | - | - |
| 1788253546 | 32.78° C | 45% | 1015 hPa | - | - | - | - |
| 1788252645 | 33.89° C | 45% | 1015.2 hPa | - | - | - | - |
| 1788251745 | 35° C | 42% | 1015.4 hPa | - | - | - | - |
| 1788250844 | 35° C | 42% | 1015.5 hPa | - | - | - | - |
| 1788249943 | 34.44° C | 41% | 1015.5 hPa | - | - | - | - |
| 1788249797 | 34.44° C | 42% | 1015.5 hPa | - | - | - | - |
| 1788248896 | 35° C | 41% | 1015.5 hPa | - | - | - | - |
| 1788248474 | 35° C | 41% | 1015.4 hPa | - | - | - | - |
| 1788247571 | 35.56° C | 42% | 1015.4 hPa | - | - | - | - |
| 1788247482 | 35° C | 41% | 1015.4 hPa | - | - | - | - |
| 1788246582 | 37.22° C | 38% | 1015.4 hPa | - | - | - | - |
| 1788245681 | 38.33° C | 35% | 1015.4 hPa | - | - | - | - |
* Rain since midnight (hover to see other rain measurements)
** Current wind speed in m/s (hover to see current wind gust speed)